Date String (YYYY-MM-DD hh:mm:ss) UTC,Instrument flags,Ambient pressure (hPa),Sample flow (lpm),Bypass flow (lpm),Sample temperature (°C),Ambient temperature (°C),ASC tube jacket temperature (°C),LED temperature (°C),Box temperature (°C),Sample RH (%),Span deviation,Mass concentration (μg/m³),Mass concentration (μg/m³),Mass concentration (μg/m³)
DateTimeUTC,F1_M11,P_M11,Q1_M11,Q2_M11,T1_M11,T2_M11,T3_M11,T4_M11,T5_M11,U1_M11,ZSPAN_M11,X0_M11,X2_M11,X1_M11
2022-05-04 02:00:00,,0819.0,5.01,0.00,26.7,25.8,00.0,35.6,28.5,22.8,-002.8,0012.07,0007.13,0006.63
2022-05-04 02:01:00,,0819.1,4.98,0.00,26.7,25.8,00.0,35.6,28.5,23.0,-002.7,0012.25,0007.14,0006.65
2022-05-04 02:02:00,,0819.2,5.01,0.00,26.7,25.9,00.0,35.6,28.5,23.3,-002.6,0012.91,0007.16,0006.66
2022-05-04 02:03:00,,0819.2,5.02,0.00,26.7,25.9,00.0,35.6,28.5,23.6,-002.8,0013.30,0007.18,0006.67
2022-05-04 02:04:00,,0819.2,5.00,0.00,26.7,25.9,00.0,35.6,28.5,23.6,-003.1,0013.86,0007.21,0006.68
2022-05-04 02:05:00,,0819.2,4.99,0.00,26.7,25.9,00.0,35.6,28.5,23.5,-003.0,0013.79,0007.19,0006.68
2022-05-04 02:06:00,,0819.2,5.01,0.00,26.7,25.9,00.0,35.6,28.5,23.8,-002.8,0013.89,0007.19,0006.67
2022-05-04 02:07:00,,0819.3,5.01,0.00,26.7,25.8,00.0,35.6,28.5,24.2,-002.7,0014.35,0007.20,0006.66
2022-05-04 02:08:00,,0819.2,4.99,0.00,26.7,25.9,00.0,35.6,28.5,24.4,-002.8,0014.53,0007.24,0006.65
2022-05-04 02:09:00,,0819.2,5.00,0.00,26.7,25.8,00.0,35.6,28.5,24.3,-002.7,0014.57,0007.26,0006.66
2022-05-04 02:10:00,,0819.2,5.00,0.00,26.6,25.8,00.0,35.6,28.4,24.4,-002.3,0014.53,0007.26,0006.67
2022-05-04 02:11:00,,0819.2,4.99,0.00,26.6,25.8,00.0,35.6,28.4,24.2,-002.3,0013.90,0007.27,0006.68
2022-05-04 02:12:00,,0819.3,5.01,0.00,26.6,25.8,00.0,35.6,28.4,24.2,-002.5,0013.46,0007.29,0006.68
2022-05-04 02:13:00,,0819.2,5.00,0.00,26.6,25.7,00.0,35.6,28.4,23.9,-002.7,0012.97,0007.33,0006.70
2022-05-04 02:14:00,,0819.2,5.00,0.00,26.6,25.7,00.0,35.6,28.4,24.0,-002.5,0012.39,0007.32,0006.69
2022-05-04 02:15:00,,0819.2,5.02,0.00,26.5,25.7,00.0,35.6,28.3,24.6,-002.5,0011.91,0007.31,0006.70
2022-05-04 02:16:00,,0819.2,5.01,0.00,26.5,25.6,00.0,35.6,28.3,24.9,-002.4,0012.09,0007.38,0006.73
2022-05-04 02:17:00,,0819.3,4.99,0.00,26.5,25.6,00.0,35.6,28.3,25.1,-002.5,0012.02,0007.44,0006.77
2022-05-04 02:18:00,,0819.2,5.01,0.00,26.5,25.6,00.0,35.5,28.3,25.0,-002.5,0011.63,0007.46,0006.80
2022-05-04 02:19:00,,0819.3,4.99,0.00,26.5,25.6,00.0,35.5,28.3,24.9,-002.6,0011.50,0007.47,0006.83
2022-05-04 02:20:00,,0819.4,5.00,0.00,26.4,25.6,00.0,35.5,28.2,24.8,-002.8,0011.54,0007.50,0006.85
2022-05-04 02:21:00,,0819.5,5.00,0.00,26.4,25.6,00.0,35.5,28.2,24.8,-002.9,0011.49,0007.50,0006.88
2022-05-04 02:22:00,,0819.5,5.00,0.00,26.4,25.6,00.0,35.5,28.2,24.7,-002.8,0010.92,0007.51,0006.90
2022-05-04 02:23:00,,0819.4,5.00,0.00,26.4,25.6,00.0,35.5,28.2,24.6,-002.8,0010.95,0007.54,0006.93
2022-05-04 02:24:00,,0819.4,5.00,0.00,26.4,25.5,00.0,35.5,28.2,24.6,-002.7,0010.84,0007.52,0006.95
2022-05-04 02:25:00,,0819.3,5.00,0.00,26.4,25.5,00.0,35.4,28.2,24.5,-002.8,0010.84,0007.55,0006.98
2022-05-04 02:26:00,,0819.3,4.99,0.00,26.4,25.6,00.0,35.4,28.2,24.7,-002.8,0010.95,0007.59,0007.00
2022-05-04 02:27:00,,0819.2,5.01,0.00,26.4,25.6,00.0,35.4,28.2,25.1,-002.6,0011.17,0007.56,0007.01
2022-05-04 02:28:00,,0819.2,4.99,0.00,26.4,25.6,00.0,35.4,28.2,25.8,-002.6,0011.23,0007.52,0007.02
2022-05-04 02:29:00,,0819.2,5.01,0.00,26.4,25.6,00.0,35.4,28.2,25.5,-002.6,0011.20,0007.53,0007.03
2022-05-04 02:30:00,,0819.3,5.00,0.00,26.4,25.5,00.0,35.4,28.2,25.0,-002.8,0011.37,0007.52,0007.04
2022-05-04 02:31:00,,0819.1,5.00,0.00,26.4,25.5,00.0,35.4,28.2,25.1,-002.7,0011.55,0007.53,0007.05
2022-05-04 02:32:00,,0819.0,4.99,0.00,26.4,25.5,00.0,35.4,28.1,25.4,-002.6,0011.66,0007.57,0007.06
2022-05-04 02:33:00,,0819.1,5.00,0.00,26.3,25.5,00.0,35.4,28.1,25.3,-002.3,0011.78,0007.61,0007.08
2022-05-04 02:34:00,,0819.2,5.00,0.00,26.3,25.4,00.0,35.4,28.1,25.3,-002.0,0011.79,0007.64,0007.09
2022-05-04 02:35:00,,0819.3,4.99,0.00,26.3,25.4,00.0,35.4,28.0,25.2,-002.0,0011.84,0007.67,0007.11
2022-05-04 02:36:00,,0819.2,5.00,0.00,26.2,25.4,00.0,35.3,28.0,25.3,-001.9,0011.89,0007.70,0007.12
2022-05-04 02:37:00,,0819.2,5.01,0.00,26.2,25.3,00.0,35.3,28.0,25.5,-001.7,0011.94,0007.71,0007.13
2022-05-04 02:38:00,,0819.2,5.00,0.00,26.2,25.3,00.0,35.3,28.0,25.7,-001.8,0011.66,0007.73,0007.16
2022-05-04 02:39:00,,0819.3,4.99,0.00,26.2,25.3,00.0,35.3,27.9,25.8,-001.8,0011.56,0007.78,0007.20
2022-05-04 02:40:00,,0819.5,4.99,0.00,26.2,25.3,00.0,35.3,27.9,25.8,-001.7,0012.24,0007.85,0007.23
2022-05-04 02:41:00,,0819.6,5.01,0.00,26.1,25.3,00.0,35.3,27.9,25.8,-001.2,0012.19,0007.91,0007.26
2022-05-04 02:42:00,,0819.7,4.99,0.00,26.1,25.3,00.0,35.2,27.9,25.9,-000.9,0012.13,0007.98,0007.31
2022-05-04 02:43:00,,0819.7,5.00,0.00,26.1,25.3,00.0,35.2,27.9,26.0,-000.8,0012.33,0008.05,0007.35
2022-05-04 02:44:00,,0819.6,5.01,0.00,26.1,25.3,00.0,35.2,27.9,26.0,-001.2,0012.30,0008.05,0007.39
2022-05-04 02:45:00,,0819.5,4.99,0.00,26.1,25.2,00.0,35.2,27.8,25.9,-001.1,0012.56,0008.06,0007.41
2022-05-04 02:46:00,,0819.6,5.01,0.00,26.0,25.2,00.0,35.2,27.8,25.6,-001.0,0012.87,0008.07,0007.42
2022-05-04 02:47:00,,0819.9,5.02,0.00,26.0,25.1,00.0,35.1,27.7,25.5,-000.5,0012.86,0008.08,0007.44
2022-05-04 02:48:00,,0819.9,4.98,0.00,26.0,25.1,00.0,35.1,27.7,25.5,-000.6,0012.86,0008.13,0007.46
2022-05-04 02:49:00,,0819.9,5.01,0.00,26.0,25.1,00.0,35.1,27.7,25.7,-000.5,0012.81,0008.16,0007.47
2022-05-04 02:50:00,,0819.9,5.00,0.00,26.0,25.1,00.0,35.1,27.7,26.0,-000.2,0013.19,0008.16,0007.47
2022-05-04 02:51:00,,0819.9,5.00,0.00,26.0,25.1,00.0,35.1,27.7,26.0,0000.1,0013.10,0008.16,0007.47
2022-05-04 02:52:00,,0819.9,5.00,0.00,26.0,25.1,00.0,35.1,27.7,25.7,-000.3,0013.21,0008.13,0007.46
2022-05-04 02:53:00,,0819.9,5.00,0.00,25.9,25.1,00.0,35.1,27.7,25.7,-000.1,0013.73,0008.05,0007.42
2022-05-04 02:54:00,,0819.9,5.00,0.00,25.9,25.1,00.0,35.0,27.7,25.8,-000.2,0013.53,0008.00,0007.39
2022-05-04 02:55:00,,0820.0,5.01,0.00,25.9,25.0,00.0,35.0,27.7,25.9,0000.2,0013.58,0008.02,0007.38
2022-05-04 02:56:00,,0820.0,4.98,0.00,25.9,25.0,00.0,35.0,27.6,26.1,0000.0,0013.35,0007.98,0007.36
2022-05-04 02:57:00,,0820.2,5.01,0.00,25.9,25.0,00.0,35.0,27.6,26.1,-000.4,0013.05,0007.95,0007.35
2022-05-04 02:58:00,,0820.2,5.00,0.00,25.9,25.0,00.0,35.0,27.6,26.2,-000.8,0013.20,0007.96,0007.33
2022-05-04 02:59:00,,0820.3,4.99,0.00,25.8,25.0,00.0,35.0,27.6,26.3,-000.8,0013.25,0007.95,0007.32
